Location: Estherville
(43.4020°N, 94.8330°W)
Time: 12:02:20
(UTC-05:00)

ISS - Visible Passes

Search period start: 19 March 2019 00:00
Search period end: 29 March 2019 00:00
Orbit: 406 x 411 km, 51.6° (Epoch: 20 March)

Date Brightness Start Highest point End Pass type
(mag) Time Alt. Az. Time Alt. Az. Time Alt. Az.
20 Mar -1.8 21:26:45 10° SW 21:28:02 21° SSW 21:28:02 21° SSW visible
21 Mar -2.9 20:36:08 10° SSW 20:39:03 29° SE 20:40:05 24° ESE visible
21 Mar -0.7 22:12:24 10° W 22:12:53 13° W 22:12:53 13° W visible
22 Mar -3.6 21:21:10 10° WSW 21:24:27 66° NNW 21:24:42 62° N visible
23 Mar -3.9 20:30:08 10° SW 20:33:25 73° SE 20:36:19 13° ENE visible
23 Mar -1.2 22:07:23 10° WNW 22:09:04 21° NW 22:09:04 21° NW visible
24 Mar -2.3 21:15:58 10° W 21:19:02 34° NNW 21:20:30 23° NNE visible
25 Mar -3.0 20:24:39 10° WSW 20:27:53 51° NNW 20:31:08 10° NE visible
25 Mar -1.3 22:02:25 10° WNW 22:04:31 20° NNW 22:04:31 20° NNW visible
26 Mar -1.7 21:10:57 10° WNW 21:13:42 24° NNW 21:15:41 14° NNE visible
27 Mar -2.1 20:19:29 10° W 20:22:26 30° NNW 20:25:24 10° NE visible
27 Mar -1.4 21:57:16 10° NW 21:59:29 19° N 21:59:29 19° N visible
28 Mar -1.5 21:05:53 10° NW 21:08:23 20° N 21:10:28 12° NE visible
28 Mar -0.3 22:42:54 10° NW 22:43:12 12° NW 22:43:12 12° NW visible
